Weather Roundup
Issued by NWS Chicago, IL

Home | Current Version | Previous Version | Text Only | Print | Product List | Glossary On
Versions: 1 2 3 4 5 6 7 8 9 10 11 12 13 14 15 16 17 18 19 20 21 22 23 24 25 26 27 28 29 30 31 32 33 34 35 36 37 38 39 40 41 42 43 44 45 46 47 48 49 50
000
NZUS59 KLOT 230810
HRRLOT

CHICAGO AREA WEATHER ROUNDUP
NATIONAL WEATHER SERVICE CHICAGO/ROMEOVILLE IL
300 AM CDT WED APR 23 2014

NOTE: "FAIR" INDICATES FEW OR NO CLOUDS BELOW 12,000 FEET WITH NO
SIGNIFICANT WEATHER AND/OR OBSTRUCTIONS TO VISIBILITY.

* THESE STATIONS ARE NOT UNDER NWS QUALITY CONTROL. THEY ALSO MAY NOT
  REPORT WEATHER SUCH AS PRECIPITATION OR FOG.

ILZ005-006-012>014-019>023-230900-
NORTHEAST ILLINOIS

CITY           SKY/WX    TMP DP  RH WIND       PRES   REMARKS
OHARE          CLEAR     36  26  67 N8        30.11S
MIDWAY         CLEAR     38  29  70 N12       30.11S
AURORA         CLEAR     32  25  75 NE5       30.11S WCI  27
LANSING*       CLEAR     37  29  71 N8        30.11S
JOLIET*        CLEAR     37  28  72 NE7       30.12R
WAUKEGAN       CLEAR     33  27  78 N7        30.11F WCI  27
DUPAGE AIRPORT CLEAR     34  28  79 NE8       30.10S WCI  27
WHEELING       CLEAR     35  28  75 N3        30.13S
KANKAKEE*      CLEAR     37  30  77 N3        30.11R
MORRIS*        CLEAR     36  27  70 NE3       30.10S
LEWIS AIRPORT* CLEAR     35  29  76 NE6       30.11R WCI  30
NORTHERLY IS     N/A     37  30  76 N13         N/A
$$

WIZ051-052-058>065-066-070>072-230900-
SOUTHEAST WISCONSIN

CITY           SKY/WX    TMP DP  RH WIND       PRES   REMARKS
MILWAUKEE      CLEAR     34  27  75 N6        30.14R WCI  29
KENOSHA*       CLEAR     32  28  85 N6        30.12S WCI  26
RACINE*        CLEAR     34  28  79 N7        30.15R WCI  28
BURLINGTON     CLEAR     31  28  90 CALM      30.12S
WAUKESHA       CLEAR     32  28  86 CALM      30.14R
WEST BEND      CLEAR     32  28  86 CALM      30.13R
$$

INZ001>003-010>013-019-020-230900-
NORTHWEST INDIANA

CITY           SKY/WX    TMP DP  RH WIND       PRES   REMARKS
GARY*          CLEAR     39  30  71 N12       30.11S
MICHIGAN CITY* NOT AVBL
RENSSELAER*    NOT AVBL
VALPARAISO     CLEAR     34  28  79 N7        30.08F WCI  28
$$

LMZ740>746-230900-
SOUTHERN LAKE MICHIGAN

STATION/POSITION TIME  SKY/WX   TEMP WIND        PRES    VSBY
                                AIR  DIR/SP/G
                 (UTC)          (F)  (DEG/KT/KT) (MB)    (MI)
HARRISON CRIB    0800            37   10/ 18/ 22   N/A
BURNHAM HARBOR   0800            37  360/ 11/ 18   N/A
CALUMET HARBOR   0800            38  350/  9/ 16 1020.4R
BURNS HARBOR     NOT AVBL
MICHIGAN CITY    0800            37  330/ 14/ 18   N/A
$$

ABBREVIATIONS USED IN REMARKS
   TC - TEMPERATURE IN CELSIUS
  WCI - WIND CHILL INDEX
   HX - HEAT INDEX
  VSB - VISIBILITY
$$


USA.gov is the U.S. government's official web portal to all federal, state and local government web resources and services.